COSMOS 1275 DEB, 12735

Orbit data source: Space-Track

COSMOS 1275 DEB, 12735 is space debris in LEO originally from a launch on Thu, 04 Jun 1981 UTC launched from the Plesetsk Missile And Space Complex (PKMTR). Debris objects in space refer to the collection of defunct objects orbiting the Earth. Examples of debris include non-operational satellites, rocket bodies, and fragments generated from explosions, collisions, or faulty payload assembly.

Loading next visibility...
Identifier
12735, 1981-053CC
Orbit
LEO
Country
Flag of CISCIS
Related business
Manufacturer
Unknown
Mission
Spacecraft
Bus & Motor
Unknown
Mass
Unknown
Launch date (UTC)
1981-06-04 (44 years ago)
Launch vehicle
Unknown
Launch site
Plesetsk Missile And Space Complex (PKMTR)
Object type
Payload
Rocket body
Debris
Shape & HBR
Unknown shape, 0.2 m
Radar Cross Section
Small (<0.1 m²)

Expand to show TLE details & history
Last TLE update: 12 hours ago

TLE from 12 hours ago
0 COSMOS 1275 DEB
1 12735U 81053CC  25298.90599612  .00000778  00000-0  83470-3 0  9999
2 12735  83.1424 231.9170 0096993 296.6137 127.4815 13.70520926202215
Epoch: 2025-10-25T21:44Z
TLE epoch observation values (Epoch: 2025-10-25T21:44:38.064Z)
Latitude
64.19275°
Longitude
-114.44681°
Altitude
1,052.743 km
Speed
7.31 km/s
True Right ascension
16h 24m 57s
True Declination
64° 03' 47"
Sunlit
Object was in daylight at epoch
Visualization orbit readout
Latitude
Unknown
Longitude
Unknown
Altitude
Unknown
Speed
Unknown
Apparent Right ascension
Unknown
Apparent Declination
Unknown
Sunlit
N/A
Visualization observer readout
Local Sidereal Time
05:02:50
Azimuth
Unknown
Elevation
Unknown
Doppler factor
Unknown
Orbital elements
Apogee altitude
1,066.361 km
Perigee altitude
923.336 km
Semi-major axis
7,372.986 km
Eccentricity
0.0097
Inclination
83.1424°
RAAN
231.917°
Arg. of periapsis
296.6137°
True anomaly
128.357°
Mean anomaly
127.4815°
Eccentric anomaly
127.9199°
Mean motion
3.42829 °/min
Orbital period
105.01 mins
BSTAR
0.0008347
Loading maneuver chart data...
Computing Atmospheric mass density...

Documentation

Showing up to 5 results
|